• In Hungary
  • List of Countries
  • For 7 days
  • Water Temperature
  • Satellite Maps
  • Weather Map
  • News
  • Weather Widgets
  • user-avatar
    Login

    Hourly Weather Ettlingen

    Today, 20 January, Saturday

    Time Temperature Precipitation Wind Pressure Humidity
    00:00 +2°C° 0 mm 3 mps 749 mmHg 89%
    01:00 +1°C° 0 mm 4 mps 749 mmHg 88%
    02:00 +1°C° 0.4 mm 4 mps 749 mmHg 87%
    03:00 +1°C° 0.4 mm 4 mps 749 mmHg 85%
    04:00 +1°C° 0.4 mm 5 mps 748 mmHg 84%
    05:00 +1°C° 0.4 mm 5 mps 748 mmHg 84%
    06:00 +1°C° 0.4 mm 5 mps 748 mmHg 85%
    07:00 +2°C° 0 mm 3 mps 748 mmHg 86%
    08:00 +2°C° 0.1 mm 3 mps 747 mmHg 86%
    09:00 +2°C° 0.1 mm 3 mps 747 mmHg 85%
    10:00 +3°C° 0.1 mm 4 mps 746 mmHg 84%
    11:00 +3°C° 0.5 mm 4 mps 745 mmHg 83%
    12:00 +4°C° 0.5 mm 3 mps 744 mmHg 82%
    13:00 +3°C° 0 mm 3 mps 743 mmHg 81%
    14:00 +3°C° 1.2 mm 3 mps 742 mmHg 83%
    15:00 +3°C° 1.2 mm 3 mps 741 mmHg 85%
    16:00 +4°C° 1.2 mm 2 mps 739 mmHg 86%
    17:00 +4°C° 2.1 mm 2 mps 739 mmHg 88%
    18:00 +4°C° 2.1 mm 2 mps 738 mmHg 90%
    19:00 +4°C° 2.1 mm 2 mps 737 mmHg 92%
    20:00 +4°C° 0.7 mm 2 mps 737 mmHg 93%
    21:00 +4°C° 0.7 mm 2 mps 737 mmHg 94%
    22:00 +4°C° 0.7 mm 2 mps 737 mmHg 95%
    23:00 +4°C° 0.3 mm 2 mps 738 mmHg 94%

    Tomorrow, 21 January, Sunday

    Time Temperature Precipitation Wind Pressure Humidity
    00:00 +3°C° 0.3 mm 2 mps 739 mmHg 94%
    01:00 +3°C° 0.3 mm 2 mps 740 mmHg 94%
    02:00 +2°C° 0.1 mm 3 mps 741 mmHg 93%
    03:00 +2°C° 0.1 mm 3 mps 742 mmHg 92%
    04:00 +2°C° 0.1 mm 3 mps 743 mmHg 92%
    05:00 +1°C° 0.1 mm 3 mps 744 mmHg 91%
    06:00 +1°C° 0.1 mm 3 mps 745 mmHg 90%
    07:00 +1°C° 0.1 mm 3 mps 746 mmHg 90%
    08:00 +1°C° 0.1 mm 3 mps 747 mmHg 89%
    09:00 +2°C° 0.1 mm 3 mps 748 mmHg 88%
    10:00 +2°C° 0.1 mm 3 mps 749 mmHg 88%
    11:00 +2°C° 0 mm 3 mps 750 mmHg 85%
    12:00 +3°C° 0 mm 3 mps 751 mmHg 82%
    13:00 +3°C° 0 mm 3 mps 751 mmHg 80%
    14:00 +4°C° 0 mm 2 mps 752 mmHg 81%
    15:00 +4°C° 0 mm 2 mps 752 mmHg 81%
    16:00 +5°C° 0 mm 1 mps 752 mmHg 82%
    17:00 +4°C° 0 mm 1 mps 752 mmHg 84%
    18:00 +4°C° 0 mm 1 mps 752 mmHg 85%
    19:00 +3°C° 0 mm 1 mps 752 mmHg 86%
    20:00 +2°C° 0.2 mm 2 mps 752 mmHg 87%
    21:00 +3°C° 0.2 mm 2 mps 751 mmHg 87%
    22:00 +3°C° 0.2 mm 2 mps 751 mmHg 87%
    23:00 +3°C° 1.1 mm 2 mps 749 mmHg 88%

    Day after tomorrow, 22 January, Monday

    Time Temperature Precipitation Wind Pressure Humidity
    00:00 +3°C° 1.1 mm 2 mps 748 mmHg 88%
    01:00 +2°C° 1.1 mm 3 mps 747 mmHg 89%
    02:00 +3°C° 1.3 mm 3 mps 747 mmHg 92%
    03:00 +3°C° 1.3 mm 3 mps 746 mmHg 94%
    04:00 +4°C° 1.3 mm 3 mps 745 mmHg 96%
    05:00 +4°C° 0.6 mm 3 mps 745 mmHg 96%
    06:00 +6°C° 0.6 mm 2 mps 745 mmHg 96%
    07:00 +7°C° 0.6 mm 2 mps 745 mmHg 97%
    08:00 +7°C° 0.2 mm 3 mps 746 mmHg 96%
    09:00 +8°C° 0.2 mm 3 mps 746 mmHg 96%
    10:00 +7°C° 0.2 mm 4 mps 747 mmHg 95%
    11:00 +8°C° 0.1 mm 4 mps 747 mmHg 93%
    12:00 +8°C° 0.1 mm 4 mps 748 mmHg 90%
    13:00 +9°C° 0.1 mm 5 mps 748 mmHg 88%
    14:00 +8°C° 0.1 mm 4 mps 748 mmHg 89%
    15:00 +9°C° 0.1 mm 3 mps 749 mmHg 89%
    16:00 +8°C° 0.1 mm 3 mps 749 mmHg 90%
    17:00 +8°C° 0 mm 2 mps 750 mmHg 91%
    18:00 +7°C° 0 mm 2 mps 750 mmHg 92%
    19:00 +8°C° 0 mm 1 mps 750 mmHg 93%
    20:00 +7°C° 0 mm 1 mps 751 mmHg 93%
    21:00 +7°C° 0 mm 1 mps 752 mmHg 93%
    22:00 +7°C° 0 mm 1 mps 752 mmHg 93%
    23:00 +6°C° 0 mm 1 mps 753 mmHg 93%

    23 January, Tuesday

    Time Temperature Precipitation Wind Pressure Humidity
    00:00 +6°C° 0 mm 1 mps 753 mmHg 93%
    01:00 +6°C° 0 mm 1 mps 754 mmHg 93%
    02:00 +5°C° 0 mm 1 mps 754 mmHg 93%
    03:00 +5°C° 0 mm 1 mps 755 mmHg 93%
    04:00 +4°C° 0 mm 1 mps 755 mmHg 93%
    05:00 +4°C° 0 mm 1 mps 756 mmHg 94%
    06:00 +4°C° 0 mm 1 mps 756 mmHg 94%
    07:00 +4°C° 0 mm 1 mps 757 mmHg 94%
    08:00 +5°C° 0 mm 1 mps 757 mmHg 93%
    09:00 +5°C° 0 mm 1 mps 757 mmHg 93%
    10:00 +6°C° 0 mm 1 mps 758 mmHg 92%
    11:00 +7°C° 0 mm 1 mps 758 mmHg 89%
    12:00 +8°C° 0 mm 1 mps 757 mmHg 86%
    13:00 +9°C° 0 mm 1 mps 757 mmHg 82%
    14:00 +9°C° 0 mm 1 mps 757 mmHg 83%
    15:00 +9°C° 0 mm 1 mps 757 mmHg 85%
    16:00 +9°C° 0 mm 1 mps 757 mmHg 86%
    17:00 +8°C° 0 mm 1 mps 757 mmHg 86%
    18:00 +7°C° 0 mm 1 mps 757 mmHg 87%
    19:00 +6°C° 0 mm 1 mps 757 mmHg 88%
    20:00 +5°C° 0 mm 2 mps 758 mmHg 87%
    21:00 +5°C° 0 mm 2 mps 758 mmHg 87%
    22:00 +5°C° 0 mm 2 mps 758 mmHg 86%
    23:00 +5°C° 0 mm 2 mps 758 mmHg 86%

    24 January, Wednesday

    Time Temperature Precipitation Wind Pressure Humidity
    00:00 +5°C° 0 mm 2 mps 757 mmHg 87%
    01:00 +5°C° 0 mm 2 mps 757 mmHg 87%
    02:00 +6°C° 0 mm 2 mps 757 mmHg 87%
    03:00 +6°C° 0 mm 2 mps 757 mmHg 87%
    04:00 +6°C° 0 mm 2 mps 757 mmHg 88%
    05:00 +7°C° 0 mm 2 mps 757 mmHg 89%
    06:00 +7°C° 0 mm 2 mps 757 mmHg 90%
    07:00 +7°C° 0 mm 2 mps 757 mmHg 91%
    08:00 +8°C° 0 mm 2 mps 757 mmHg 90%
    09:00 +8°C° 0 mm 2 mps 757 mmHg 90%
    10:00 +9°C° 0 mm 2 mps 757 mmHg 89%
    11:00 +10°C° 0 mm 3 mps 757 mmHg 86%
    12:00 +11°C° 0 mm 3 mps 756 mmHg 83%
    13:00 +12°C° 0 mm 3 mps 756 mmHg 80%
    14:00 +12°C° 0 mm 3 mps 755 mmHg 82%
    15:00 +13°C° 0 mm 2 mps 755 mmHg 84%
    16:00 +13°C° 0 mm 2 mps 755 mmHg 86%
    17:00 +12°C° 0 mm 2 mps 755 mmHg 88%
    18:00 +10°C° 0 mm 2 mps 755 mmHg 89%
    19:00 +9°C° 0 mm 2 mps 755 mmHg 91%
    20:00 +9°C° 0 mm 2 mps 755 mmHg 90%
    21:00 +8°C° 0 mm 2 mps 755 mmHg 89%
    22:00 +8°C° 0 mm 2 mps 754 mmHg 88%
    23:00 +8°C° 0 mm 2 mps 754 mmHg 88%

    25 January, Thursday

    Time Temperature Precipitation Wind Pressure Humidity
    00:00 +7°C° 0 mm 2 mps 754 mmHg 87%
    01:00 +7°C° 0 mm 2 mps 754 mmHg 86%
    02:00 +7°C° 0 mm 2 mps 753 mmHg 86%
    03:00 +7°C° 0 mm 2 mps 753 mmHg 85%
    04:00 +7°C° 0 mm 2 mps 752 mmHg 84%
    05:00 +7°C° 0 mm 2 mps 752 mmHg 84%
    06:00 +7°C° 0 mm 2 mps 752 mmHg 83%
    07:00 +7°C° 0 mm 3 mps 752 mmHg 83%
    08:00 +7°C° 0 mm 3 mps 752 mmHg 81%
    09:00 +8°C° 0 mm 3 mps 751 mmHg 79%
    10:00 +9°C° 0 mm 3 mps 751 mmHg 77%
    11:00 +10°C° 0 mm 3 mps 751 mmHg 74%
    12:00 +11°C° 0 mm 4 mps 751 mmHg 72%
    13:00 +12°C° 0 mm 4 mps 750 mmHg 69%
    14:00 +12°C° 0 mm 4 mps 750 mmHg 72%
    15:00 +11°C° 0 mm 3 mps 750 mmHg 74%
    16:00 +11°C° 0 mm 3 mps 750 mmHg 77%
    17:00 +10°C° 0 mm 3 mps 750 mmHg 79%
    18:00 +10°C° 0 mm 3 mps 750 mmHg 81%
    19:00 +9°C° 0 mm 3 mps 750 mmHg 83%
    20:00 +9°C° 0.2 mm 3 mps 751 mmHg 85%
    21:00 +9°C° 0.2 mm 2 mps 751 mmHg 87%
    22:00 +8°C° 0.2 mm 2 mps 751 mmHg 88%
    23:00 +8°C° 0.1 mm 2 mps 752 mmHg 89%
    Show more